Location: Csohesd
(46.2500°N, 22.6167°E)
Time: 06:01:43
(UTC+00:00)

Cosmos 44 - Pass Details

Date: 21 October 2021
Orbit: 579 x 782 km, 65.1° (Epoch: 04 December)

Event Time Altitude Azimuth Distance (km) Brightness Sun altitude
Rises 18:23:43 0° 220° (SW) 3,253 7.0 -30.1°
Reaches altitude 10° 18:26:08 10° 223° (SW) 2,332 6.2 -30.5°
Enters shadow 18:29:36 40° 233° (SW) 1,134 4.5 -31.1°
